Weather History for K2D5 - March, 2014

Change the Weather History Date:

Tuesday, March 18, 2014

  Actual Average (KABR) Record (KABR)
Temperature  
Mean Temperature 29 °F 31 °F  
Max Temperature 32 °F 41 °F 85 °F (2012)
Min Temperature 26 °F 21 °F -15 °F (1923)
Degree Days  
Heating Degree Days 36 34  
Month to date heating degree days 686  
Since 1 July heating degree days 7149  
Cooling Degree Days 0 0  
Month to date cooling degree days 0  
Year to date cooling degree days 0  
Moisture  
Dew Point 28 °F    
Average Humidity 92    
Maximum Humidity 100    
Minimum Humidity 80    
Precipitation  
Precipitation 0.02 in 0.04 in 2.49 in (1968)
Month to date precipitation 0.59  
Year to date precipitation 1.61  
Snow  
Snow 0.00 in - - ()
Month to date snowfall  
Since 1 July snowfall  
Snow Depth -    
Sea Level Pressure  
Sea Level Pressure 29.80 in    
Wind  
Wind Speed 16 mph (North)    
Max Wind Speed 23 mph    
Max Gust Speed 28 mph    
Visibility 10 miles    
Events Snow    
T = Trace of Precipitation, MM = Missing Value Source: NWS Daily Summary

Daily Weather History Graph

Daily Weather History Graph

Search for Another Location

Airport or City:

Trip Planner

Search our weather history database for the weather conditions in past years. The results will help you decide how hot, cold, wet, or windy it might be!

Date:

Astronomy

Mar. 18, 2014 Rise Set
Actual Time 7:39 AM CDT 7:42 PM CDT
Civil Twilight 7:09 AM CDT 8:12 PM CDT
Nautical Twilight 6:34 AM CDT 8:47 PM CDT
Astronomical Twilight 5:58 AM CDT 9:23 PM CDT
Moon 10:10 PM CDT (3/18) 8:21 AM CDT (3/18)
Length of Visible Light 13h 02m
Length of Day
12h 03m
Waning Gibbous, 96% of the Moon is Illuminated
Mar 18
Waning Gibbous
Mar 23
Last Quarter
Mar 30
New
Apr 7
First Quarter
Apr 15
Full

Hourly Weather History & Observations

Time (CDT) Temp. Windchill Dew Point Humidity Pressure Visibility Wind Dir Wind Speed Gust Speed Precip Events Conditions
12:15 AM 30.2 °F 19.3 °F 30.2 °F 100% 29.59 in 2.5 mi NNE 15.0 mph - 0.01 in Snow Light Snow
12:35 AM 30.2 °F 18.9 °F 30.2 °F 100% 29.59 in 3.0 mi NNE 16.1 mph - 0.02 in Snow Light Snow
12:55 AM 30.2 °F 19.3 °F 30.2 °F 100% 29.60 in 7.0 mi NNE 15.0 mph 20.7 mph 0.02 in Snow Light Snow
1:15 AM 30.2 °F 18.5 °F 30.2 °F 100% 29.60 in 10.0 mi NNE 17.3 mph - N/A   Overcast
1:35 AM 30.2 °F 18.1 °F 30.2 °F 100% 29.61 in 10.0 mi NNE 18.4 mph 21.9 mph N/A   Overcast
1:55 AM 30.2 °F 18.5 °F 30.2 °F 100% 29.62 in 10.0 mi NNE 17.3 mph 26.5 mph N/A   Overcast
2:15 AM 32.0 °F 20.8 °F 32.0 °F 100% 29.63 in 10.0 mi NNE 17.3 mph 23.0 mph N/A   Overcast
2:35 AM 30.2 °F 18.1 °F 30.2 °F 100% 29.63 in 10.0 mi NNE 18.4 mph 26.5 mph N/A   Overcast
2:55 AM 30.2 °F 17.8 °F 30.2 °F 100% 29.63 in 10.0 mi NNE 19.6 mph - N/A   Overcast
3:15 AM 28.4 °F 16.2 °F 28.4 °F 100% 29.64 in 10.0 mi NNE 17.3 mph 24.2 mph N/A   Overcast
3:35 AM 28.4 °F 17.5 °F 28.4 °F 100% 29.65 in 10.0 mi NNE 13.8 mph - N/A   Overcast
3:55 AM 28.4 °F 16.6 °F 28.4 °F 100% 29.65 in 10.0 mi NNE 16.1 mph - N/A   Overcast
4:15 AM 28.4 °F 16.2 °F 28.4 °F 100% 29.65 in 10.0 mi North 17.3 mph - N/A   Overcast
4:35 AM 28.4 °F 15.1 °F 28.4 °F 100% 29.64 in 10.0 mi North 20.7 mph - N/A   Overcast
4:55 AM 28.4 °F 15.8 °F 28.4 °F 100% 29.66 in 10.0 mi North 18.4 mph 26.5 mph N/A   Overcast
5:15 AM 28.4 °F 15.1 °F 28.4 °F 100% 29.68 in 10.0 mi North 20.7 mph 25.3 mph N/A   Overcast
5:35 AM 28.4 °F 16.2 °F 28.4 °F 100% 29.69 in 10.0 mi North 17.3 mph 24.2 mph N/A   Overcast
5:55 AM 28.4 °F 16.6 °F 28.4 °F 100% 29.70 in 10.0 mi North 16.1 mph - N/A   Overcast
6:15 AM 28.4 °F 16.2 °F 28.4 °F 100% 29.71 in 10.0 mi North 17.3 mph 23.0 mph N/A   Overcast
6:35 AM 28.4 °F 16.6 °F 28.4 °F 100% 29.72 in 10.0 mi North 16.1 mph - N/A   Overcast
6:55 AM 28.4 °F 16.2 °F 28.4 °F 100% 29.72 in 10.0 mi North 17.3 mph - N/A   Overcast
7:15 AM 28.4 °F 17.0 °F 28.4 °F 100% 29.74 in 10.0 mi North 15.0 mph - N/A   Overcast
7:35 AM 28.4 °F 17.5 °F 28.4 °F 100% 29.74 in 10.0 mi North 13.8 mph - N/A   Overcast
7:55 AM 28.4 °F 17.0 °F 28.4 °F 100% 29.76 in 10.0 mi North 15.0 mph - N/A   Overcast
8:15 AM 26.6 °F 14.7 °F 26.6 °F 100% 29.77 in 9.0 mi North 15.0 mph - N/A   Overcast
8:35 AM 28.4 °F 17.0 °F 28.4 °F 100% 29.77 in 9.0 mi North 15.0 mph - N/A   Overcast
8:55 AM 28.4 °F 15.8 °F 28.4 °F 100% 29.77 in 9.0 mi North 18.4 mph - N/A   Overcast
9:15 AM 28.4 °F 15.1 °F 28.4 °F 100% 29.78 in 9.0 mi North 20.7 mph 24.2 mph N/A   Overcast
9:35 AM 28.4 °F 15.1 °F 28.4 °F 100% 29.78 in 7.0 mi North 20.7 mph - N/A   Overcast
9:55 AM 28.4 °F 14.4 °F 28.4 °F 100% 29.78 in 9.0 mi North 23.0 mph 27.6 mph N/A   Overcast
10:15 AM 28.4 °F 14.4 °F 26.6 °F 93% 29.79 in 10.0 mi North 23.0 mph - N/A   Overcast
10:35 AM 28.4 °F 16.2 °F 26.6 °F 93% 29.81 in 10.0 mi North 17.3 mph 24.2 mph N/A   Overcast
10:55 AM 28.4 °F 15.8 °F 26.6 °F 93% 29.82 in 10.0 mi North 18.4 mph - N/A   Overcast
11:15 AM 28.4 °F 15.4 °F 26.6 °F 93% 29.82 in 10.0 mi North 19.6 mph 23.0 mph N/A   Overcast
11:35 AM 28.4 °F 16.6 °F 26.6 °F 93% 29.83 in 10.0 mi North 16.1 mph 20.7 mph N/A   Overcast
11:55 AM 28.4 °F 17.5 °F 26.6 °F 93% 29.84 in 10.0 mi North 13.8 mph - N/A   Overcast
12:15 PM 30.2 °F 19.8 °F 26.6 °F 86% 29.84 in 10.0 mi North 13.8 mph - N/A   Overcast
12:35 PM 30.2 °F 20.2 °F 26.6 °F 86% 29.84 in 10.0 mi NNW 12.7 mph - N/A   Overcast
12:55 PM 30.2 °F 18.9 °F 26.6 °F 86% 29.84 in 10.0 mi North 16.1 mph - N/A   Overcast
1:15 PM 30.2 °F 18.9 °F 26.6 °F 86% 29.84 in 10.0 mi North 16.1 mph - N/A   Overcast
1:35 PM 30.2 °F 18.9 °F 26.6 °F 86% 29.84 in 10.0 mi North 16.1 mph - N/A   Overcast
1:55 PM 32.0 °F 21.6 °F 28.4 °F 87% 29.85 in 10.0 mi North 15.0 mph - N/A   Overcast
2:15 PM 32.0 °F 21.6 °F 26.6 °F 80% 29.84 in 10.0 mi North 15.0 mph - N/A   Overcast
2:35 PM 32.0 °F 22.1 °F 26.6 °F 80% 29.84 in 10.0 mi North 13.8 mph - N/A   Overcast
2:55 PM 32.0 °F 21.2 °F 28.4 °F 87% 29.85 in 10.0 mi North 16.1 mph - N/A   Overcast
3:15 PM 32.0 °F 21.2 °F 28.4 °F 87% 29.85 in 10.0 mi North 16.1 mph - N/A   Overcast
3:35 PM 32.0 °F 22.5 °F 26.6 °F 80% 29.85 in 10.0 mi North 12.7 mph 20.7 mph N/A   Overcast
3:55 PM 32.0 °F 21.6 °F 26.6 °F 80% 29.85 in 10.0 mi North 15.0 mph - N/A   Overcast
4:15 PM 32.0 °F 21.2 °F 26.6 °F 80% 29.85 in 10.0 mi North 16.1 mph 21.9 mph N/A   Overcast
4:35 PM 32.0 °F 20.5 °F 26.6 °F 80% 29.86 in 10.0 mi NNW 18.4 mph - N/A   Overcast
4:55 PM 32.0 °F 20.8 °F 26.6 °F 80% 29.86 in 10.0 mi NNW 17.3 mph - N/A   Overcast
5:15 PM 32.0 °F 20.5 °F 26.6 °F 80% 29.87 in 10.0 mi NW 18.4 mph - N/A   Overcast
5:35 PM 32.0 °F 21.2 °F 26.6 °F 80% 29.88 in 10.0 mi NNW 16.1 mph 24.2 mph N/A   Overcast
5:55 PM 30.2 °F 18.1 °F 26.6 °F 86% 29.89 in 10.0 mi NW 18.4 mph - N/A   Overcast
6:15 PM 30.2 °F 17.8 °F 26.6 °F 86% 29.90 in 10.0 mi NNW 19.6 mph 23.0 mph N/A   Overcast
6:35 PM 28.4 °F 15.8 °F 24.8 °F 86% 29.91 in 10.0 mi NNW 18.4 mph 21.9 mph N/A   Overcast
6:55 PM 28.4 °F 17.5 °F 24.8 °F 86% 29.91 in 10.0 mi NNW 13.8 mph - N/A   Overcast
7:15 PM 30.2 °F 18.9 °F 26.6 °F 86% 29.91 in 10.0 mi NW 16.1 mph - N/A   Overcast
7:35 PM 30.2 °F 19.3 °F 26.6 °F 86% 29.92 in 10.0 mi NNW 15.0 mph - N/A   Overcast
7:55 PM 30.2 °F 19.3 °F 26.6 °F 86% 29.92 in 10.0 mi NNW 15.0 mph - N/A   Overcast
8:15 PM 30.2 °F 21.3 °F 26.6 °F 86% 29.93 in 10.0 mi NNW 10.4 mph - N/A   Overcast
8:35 PM 30.2 °F 20.8 °F 26.6 °F 86% 29.93 in 10.0 mi NNW 11.5 mph - N/A   Overcast
8:55 PM 32.0 °F 24.8 °F 26.6 °F 80% 29.94 in 10.0 mi North 8.1 mph - N/A   Overcast
9:15 PM 32.0 °F 25.6 °F 28.4 °F 87% 29.94 in 10.0 mi NNW 6.9 mph - N/A   Overcast
9:35 PM 32.0 °F 25.6 °F 28.4 °F 87% 29.94 in 10.0 mi NW 6.9 mph - N/A   Overcast
9:55 PM 32.0 °F 27.5 °F 28.4 °F 87% 29.95 in 10.0 mi WNW 4.6 mph - N/A   Overcast
10:15 PM 32.0 °F 26.4 °F 28.4 °F 87% 29.94 in 10.0 mi NW 5.8 mph - N/A   Overcast
10:35 PM 32.0 °F 26.4 °F 28.4 °F 87% 29.94 in 10.0 mi WNW 5.8 mph - N/A   Overcast
10:55 PM 30.2 °F 26.7 °F 28.4 °F 93% 29.94 in 10.0 mi NW 3.5 mph - N/A   Mostly Cloudy
11:15 PM 30.2 °F 25.4 °F 28.4 °F 93% 29.94 in 10.0 mi NW 4.6 mph - N/A   Mostly Cloudy
11:35 PM 30.2 °F 24.3 °F 28.4 °F 93% 29.94 in 10.0 mi North 5.8 mph - N/A   Overcast
11:55 PM 32.0 °F 24.8 °F 30.2 °F 93% 29.95 in 10.0 mi WNW 8.1 mph - N/A   Overcast